This is the latest recevied weather packets stored in our database for station/object KQ4JKJ. If no packets are shown the sender has not sent any weather packets the latest 10 day(s).
| Time | Temp. | Humidity | Pressure | Rain* | Wind** | Luminosity | Snow |
|---|---|---|---|---|---|---|---|
| 1777668817 | 28.89° C | 73% | 1003.7 hPa | 0 mm | - | 373 W/m² | - |
| 1777668513 | 29.44° C | 73% | 1003.5 hPa | 0 mm | - | 344 W/m² | - |
| 1777668210 | 29.44° C | 74% | 1003.3 hPa | 0 mm | - | 470 W/m² | - |
| 1777667906 | 29.44° C | 73% | 1003.3 hPa | 0 mm | - | 405 W/m² | - |
| 1777667603 | 29.44° C | 74% | 1003.5 hPa | 0 mm | - | 388 W/m² | - |
| 1777667295 | 30° C | 72% | 1003.5 hPa | 0 mm | - | 399 W/m² | - |
| 1777666991 | 29.44° C | 74% | 1003.7 hPa | 0 mm | - | 546 W/m² | - |
| 1777666689 | 29.44° C | 74% | 1003.8 hPa | 0 mm | - | 369 W/m² | - |
| 1777666385 | 30° C | 72% | 1004 hPa | 0 mm | - | 399 W/m² | - |
| 1777666082 | 29.44° C | 74% | 1003.9 hPa | 0 mm | - | 478 W/m² | - |
| 1777665779 | 29.44° C | 74% | 1004 hPa | 0 mm | - | 551 W/m² | - |
| 1777665476 | 30° C | 73% | 1004.3 hPa | 0 mm | - | 509 W/m² | - |
| 1777665172 | 30° C | 73% | 1004.4 hPa | 0 mm | - | 619 W/m² | - |
| 1777664868 | 30° C | 73% | 1004.4 hPa | 0 mm | - | 626 W/m² | - |
| 1777664564 | 30° C | 72% | 1004.4 hPa | 0 mm | - | 647 W/m² | - |
| 1777664261 | 29.44° C | 72% | 1004.8 hPa | 0 mm | - | 579 W/m² | - |
| 1777663960 | 30° C | 71% | 1004.8 hPa | 0 mm | - | 297 W/m² | - |
| 1777663657 | 30° C | 69% | 1004.9 hPa | 0 mm | - | 184 W/m² | - |
| 1777663353 | 30° C | 69% | 1004.9 hPa | 0 mm | - | 611 W/m² | - |
| 1777663051 | 30.56° C | 68% | 1005 hPa | 0 mm | - | 694 W/m² | - |
| 1777662748 | 30° C | 70% | 1005.1 hPa | 0 mm | - | 719 W/m² | - |
| 1777662444 | 30° C | 70% | 1005 hPa | 0 mm | - | 414 W/m² | - |
| 1777662140 | 30.56° C | 69% | 1005.1 hPa | 0 mm | - | 595 W/m² | - |
| 1777661836 | 31.11° C | 66% | 1005.1 hPa | 0 mm | - | 233 W/m² | - |
| 1777661532 | 31.11° C | 66% | 1005 hPa | 0 mm | - | 700 W/m² | - |
* Rain latest hour (hover to see other rain measurements)
** Current wind speed in m/s (hover to see current wind gust speed)